EW4504 Weather Reports


Display with metric or nautical units.
time (UTC)temp
F
wind
direction
speed
MPH
gust
MPH
rain 1hr
in
rain 24hr
in
rain mn
in
humidity
%
barometer
mb
20260509061033 58 0 0.0 0.0 0.00 0.00 0.00 86 1012.8
20260509060532 58 0 0.0 0.0 0.00 0.00 0.00 86 1013.0
20260509060043 58 0 0.0 0.0 0.00 0.00 0.00 86 1013.0
20260509055535 58 0 0.0 0.0 0.00 0.00 0.00 86 1013.1
20260509055030 58 0 0.0 0.0 0.00 0.00 0.00 86 1013.1
20260509054550 57 0 0.0 0.0 0.00 0.00 0.00 86 1013.2
20260509054028 57 0 0.0 0.0 0.00 0.00 0.00 86 1013.2
20260509053531 57 0 0.0 0.0 0.00 0.00 0.00 85 1013.3
20260509053055 57 0 0.0 0.0 0.00 0.00 0.00 85 1013.2
20260509052531 57 0 0.0 0.0 0.00 0.00 0.00 85 1013.2
20260509052028 57 0 0.0 0.0 0.00 0.00 0.00 84 1013.1
20260509051545 57 0 0.0 0.0 0.00 0.00 0.00 84 1013.1
20260509051034 57 0 0.0 0.0 0.00 0.00 0.00 84 1013.1
20260509050530 57 0 0.0 0.0 0.00 0.00 0.00 84 1013.0
20260509050041 57 0 0.0 0.0 0.00 0.00 0.00 84 1013.1
20260509045532 58 0 0.0 0.0 0.00 0.00 0.00 84 1013.1
20260509045032 58 0 0.0 0.0 0.00 0.00 0.00 83 1013.1
20260509044548 58 0 0.0 0.0 0.00 0.00 0.00 83 1013.0
20260509044027 58 0 0.0 0.0 0.00 0.00 0.00 83 1013.1
20260509043527 58 0 0.0 0.0 0.00 0.00 0.00 83 1013.0
20260509043042 58 0 0.0 0.0 0.00 0.00 0.00 83 1013.2
20260509042531 58 0 0.0 0.0 0.00 0.00 0.00 82 1013.3
20260509042031 58 0 0.0 0.0 0.00 0.00 0.00 82 1013.3
20260509041540 58 0 0.0 0.0 0.00 0.00 0.00 81 1013.3
20260509041032 58 0 0.0 0.0 0.00 0.00 0.00 81 1013.3
20260509040532 58 0 0.0 0.0 0.00 0.00 0.00 81 1013.2
20260509040044 59 0 0.0 0.0 0.00 0.00 0.00 80 1013.5
20260509035530 59 0 0.0 0.0 0.00 0.00 0.00 80 1013.6
20260509035031 59 0 0.0 0.0 0.00 0.00 0.00 80 1013.6
20260509034539 59 0 0.0 0.0 0.00 0.00 0.00 79 1013.6
20260509034030 59 0 0.0 0.0 0.00 0.00 0.00 79 1013.5
20260509033531 59 0 0.0 0.0 0.00 0.00 0.00 79 1013.9
20260509033035 60 0 0.0 0.0 0.00 0.00 0.00 78 1013.7
20260509032533 60 0 0.0 0.0 0.00 0.00 0.00 78 1013.8
20260509032031 60 0 0.0 0.0 0.00 0.00 0.00 77 1013.9
20260509031543 60 0 0.0 0.0 0.00 0.00 0.00 77 1013.9
20260509031028 60 0 0.0 0.0 0.00 0.00 0.00 76 1013.9
20260509030531 61 0 0.0 0.0 0.00 0.00 0.00 76 1013.9
20260509030040 61 0 0.0 0.0 0.00 0.00 0.00 75 1014.0
20260509025527 62 0 0.0 0.0 0.00 0.00 0.00 74 1014.2
20260509025028 62 0 0.0 0.0 0.00 0.00 0.00 73 1014.0
20260509024538 62 0 0.0 1.0 0.00 0.00 0.00 73 1014.1
20260509024030 62 0 0.0 1.0 0.00 0.00 0.00 72 1014.0
20260509023530 62 199 0.0 1.0 0.00 0.00 0.00 72 1014.1
20260509023039 63 0 0.0 3.0 0.00 0.00 0.00 72 1014.4
20260509022530 63 0 0.0 3.0 0.00 0.00 0.00 71 1014.1
20260509022030 63 200 0.0 4.0 0.00 0.00 0.00 71 1014.3
20260509021544 63 0 0.0 5.0 0.00 0.00 0.00 71 1014.1
20260509021030 63 207 2.0 5.0 0.00 0.00 0.00 71 1014.3
20260509020533 63 190 1.0 4.0 0.00 0.00 0.00 70 1014.3
20260509020042 63 188 0.0 4.0 0.00 0.00 0.00 70 1014.1
20260509015533 63 0 1.0 3.0 0.00 0.00 0.00 70 1013.9
20260509015033 63 217 1.0 4.0 0.00 0.00 0.00 69 1014.1
20260509014542 64 221 1.0 5.0 0.00 0.00 0.00 69 1014.1
20260509014035 64 218 2.0 6.0 0.00 0.00 0.00 69 1013.9
20260509013530 64 202 2.0 6.0 0.00 0.00 0.00 69 1014.0
20260509013041 64 197 1.0 3.0 0.00 0.00 0.00 69 1013.9
20260509012532 64 197 1.0 3.0 0.00 0.00 0.00 69 1014.0
20260509012030 64 0 0.0 4.0 0.00 0.00 0.00 68 1013.9
20260509011538 64 0 1.0 4.0 0.00 0.00 0.00 68 1013.7
20260509011031 64 203 0.0 4.0 0.00 0.00 0.00 67 1013.7
20260509010530 64 198 0.0 2.0 0.00 0.00 0.00 67 1013.8
20260509010046 65 0 0.0 2.0 0.00 0.00 0.00 67 1013.8
20260509005531 65 0 0.0 2.0 0.00 0.00 0.00 67 1013.8
20260509005030 65 201 0.0 2.0 0.00 0.00 0.00 66 1013.7
20260509004541 65 0 0.0 2.0 0.00 0.00 0.00 66 1013.7
20260509004028 65 0 0.0 3.0 0.00 0.00 0.00 66 1013.8
20260509003532 65 201 0.0 4.0 0.00 0.00 0.00 65 1013.8
20260509003041 65 201 1.0 4.0 0.00 0.00 0.00 65 1013.8
20260509002530 66 200 2.0 4.0 0.00 0.00 0.00 64 1013.9
20260509002031 66 200 2.0 4.0 0.00 0.00 0.00 64 1013.9
20260509001540 66 207 1.0 3.0 0.00 0.00 0.00 64 1013.8
20260509001030 66 0 1.0 3.0 0.00 0.00 0.00 64 1013.8
20260509000530 66 206 1.0 3.0 0.00 0.00 0.00 64 1013.8
20260509000037 66 207 0.0 4.0 0.00 0.00 0.00 63 1013.9
20260508235531 66 207 1.0 4.0 0.00 0.02 0.00 63 1013.9
20260508235032 67 0 1.0 4.0 0.00 0.02 0.00 63 1013.9
20260508234546 67 0 0.0 4.0 0.00 0.02 0.00 62 1013.7
20260508234028 67 207 2.0 4.0 0.00 0.02 0.00 61 1013.8
20260508233534 67 208 1.0 3.0 0.00 0.02 0.00 61 1013.8
20260508233040 67 207 1.0 5.0 0.00 0.02 0.00 61 1013.7
20260508232530 67 207 2.0 5.0 0.00 0.02 0.00 61 1013.6
20260508232027 67 201 0.0 3.0 0.00 0.02 0.00 61 1013.5
20260508231555 67 219 0.0 5.0 0.00 0.02 0.00 61 1013.5
20260508231032 68 219 1.0 5.0 0.00 0.02 0.00 60 1013.5
20260508230528 68 0 2.0 5.0 0.00 0.02 0.00 60 1013.4
20260508230054 68 225 1.0 3.0 0.00 0.02 0.00 60 1013.4
20260508225535 68 136 1.0 3.0 0.00 0.05 0.00 59 1013.3
20260508225029 68 132 0.0 3.0 0.00 0.05 0.00 59 1013.3
20260508224550 68 0 0.0 5.0 0.00 0.05 0.00 59 1013.3
20260508224029 68 0 1.0 5.0 0.00 0.05 0.00 59 1013.3
20260508223528 68 165 1.0 5.0 0.00 0.05 0.00 58 1013.5
20260508223046 69 158 0.0 2.0 0.00 0.05 0.00 57 1013.6
20260508222529 69 0 0.0 2.0 0.00 0.05 0.00 56 1013.5
20260508222027 69 0 0.0 4.0 0.00 0.05 0.00 55 1013.4
20260508221548 69 0 0.0 4.0 0.00 0.05 0.00 56 1013.3
20260508221028 69 0 0.0 5.0 0.00 0.05 0.00 54 1013.6
20260508220533 69 159 1.0 5.0 0.00 0.05 0.00 55 1013.8
20260508220045 69 158 1.0 4.0 0.00 0.05 0.00 55 1013.8
20260508215534 69 0 0.0 3.0 0.00 0.09 0.00 54 1013.6
20260508215032 69 0 0.0 3.0 0.00 0.09 0.00 54 1013.6
20260508214618 69 0 0.0 3.0 0.00 0.09 0.00 55 1013.6
20260508214034 69 0 1.0 3.0 0.00 0.09 0.00 55 1013.5
20260508213530 69 125 0.0 3.0 0.00 0.09 0.00 55 1013.6
20260508213053 70 0 0.0 3.0 0.00 0.09 0.00 54 1013.7
20260508212533 70 0 0.0 3.0 0.00 0.09 0.00 53 1013.5
20260508212036 70 121 0.0 3.0 0.00 0.09 0.00 55 1013.5
20260508211543 70 0 1.0 3.0 0.00 0.09 0.00 52 1013.5
20260508211032 69 121 0.0 4.0 0.00 0.09 0.00 52 1013.6
20260508210530 69 121 1.0 4.0 0.00 0.09 0.00 51 1013.7
20260508210054 70 0 0.0 4.0 0.00 0.09 0.00 51 1013.6
20260508205529 69 0 0.0 4.0 0.00 0.15 0.00 50 1013.7
20260508205034 70 107 1.0 3.0 0.00 0.15 0.00 49 1013.6
20260508204543 70 117 0.0 3.0 0.00 0.15 0.00 50 1013.6
20260508204030 70 119 0.0 4.0 0.00 0.15 0.00 50 1013.8
20260508203532 70 118 1.0 4.0 0.00 0.15 0.00 51 1014.0
20260508203105 70 0 1.0 4.0 0.00 0.15 0.00 48 1013.8
20260508202532 70 0 1.0 6.0 0.00 0.15 0.00 48 1013.9
20260508202030 70 0 2.0 6.0 0.00 0.15 0.00 49 1014.1
20260508201546 70 128 1.0 4.0 0.00 0.15 0.00 49 1014.0
20260508201033 70 132 1.0 3.0 0.00 0.15 0.00 49 1013.8
20260508200533 70 0 1.0 3.0 0.00 0.15 0.00 48 1014.0
20260508200043 70 0 1.0 3.0 0.00 0.15 0.00 48 1013.7
20260508195535 70 131 0.0 2.0 0.00 0.23 0.00 48 1013.9
20260508195029 70 0 0.0 3.0 0.00 0.23 0.00 46 1013.9
20260508194540 70 134 0.0 6.0 0.00 0.23 0.00 47 1014.0
20260508194033 70 117 1.0 6.0 0.00 0.23 0.00 47 1014.2
20260508193535 70 77 3.0 6.0 0.00 0.23 0.00 47 1014.3
20260508193051 70 0 0.0 4.0 0.00 0.23 0.00 47 1014.7
20260508192529 70 78 1.0 6.0 0.00 0.23 0.00 47 1014.6
20260508192030 71 146 2.0 7.0 0.00 0.23 0.00 49 1014.5
20260508191548 70 104 3.0 7.0 0.00 0.23 0.00 48 1014.6
20260508191029 70 0 1.0 7.0 0.00 0.23 0.00 48 1014.5
20260508190529 71 90 1.0 7.0 0.00 0.23 0.00 48 1014.8
20260508190044 71 75 3.0 7.0 0.00 0.23 0.00 48 1014.8
20260508185533 71 94 2.0 7.0 0.00 0.33 0.00 49 1015.0
20260508185036 70 128 3.0 7.0 0.00 0.33 0.00 49 1015.1
20260508184542 71 113 2.0 8.0 0.00 0.33 0.00 48 1015.1
20260508184029 71 132 3.0 8.0 0.00 0.33 0.00 49 1015.1
20260508183529 71 182 2.0 6.0 0.00 0.33 0.00 49 1015.1
20260508183041 71 179 2.0 5.0 0.00 0.33 0.00 50 1015.4
20260508182529 70 0 2.0 5.0 0.00 0.33 0.00 49 1015.5
20260508182028 70 208 2.0 5.0 0.00 0.33 0.00 51 1015.3
20260508181543 70 188 0.0 6.0 0.00 0.33 0.00 51 1015.5
20260508181028 70 0 2.0 10.0 0.00 0.33 0.00 49 1015.5
20260508180528 70 143 3.0 10.0 0.00 0.33 0.00 51 1015.3
20260508180042 71 177 4.0 9.0 0.00 0.33 0.00 50 1015.4
20260508175528 72 157 2.0 6.0 0.00 0.44 0.00 50 1015.8
20260508175030 72 299 2.0 8.0 0.00 0.44 0.00 49 1015.6
20260508174542 72 191 3.0 8.0 0.00 0.44 0.00 51 1015.7
20260508174029 72 183 4.0 8.0 0.00 0.44 0.00 52 1015.7
20260508173529 72 195 3.0 7.0 0.00 0.44 0.00 54 1015.7
20260508173041 71 225 2.0 7.0 0.00 0.44 0.00 53 1015.8
20260508172529 71 267 2.0 10.0 0.00 0.44 0.00 54 1015.8
20260508172030 70 192 3.0 11.0 0.00 0.44 0.00 52 1016.0
20260508171542 70 186 4.0 11.0 0.00 0.44 0.00 54 1016.1
20260508171031 69 0 3.0 8.0 0.00 0.44 0.00 54 1016.0
20260508170528 69 52 3.0 11.0 0.00 0.44 0.00 54 1016.2
20260508170042 69 180 2.0 11.0 0.00 0.44 0.00 54 1016.1
20260508165530 70 161 5.0 10.0 0.00 0.56 0.00 57 1016.4
20260508165030 70 100 1.0 8.0 0.00 0.56 0.00 58 1016.4
20260508164543 69 136 3.0 8.0 0.00 0.56 0.00 57 1016.6
20260508164030 69 215 3.0 7.0 0.00 0.56 0.00 58 1016.7
20260508163530 69 228 3.0 9.0 0.00 0.56 0.00 58 1016.7
20260508163045 68 0 3.0 9.0 0.00 0.56 0.00 56 1016.8
20260508162530 68 120 4.0 9.0 0.00 0.56 0.00 57 1016.6
20260508162032 68 52 3.0 9.0 0.00 0.56 0.00 59 1017.0
20260508161543 68 0 3.0 9.0 0.00 0.56 0.00 61 1017.0
20260508161030 68 0 5.0 9.0 0.00 0.56 0.00 60 1017.1
20260508160531 68 84 2.0 9.0 0.00 0.56 0.00 62 1017.5
20260508160042 68 124 3.0 9.0 0.00 0.56 0.00 63 1017.4
20260508155529 68 94 3.0 9.0 0.00 0.72 0.00 63 1017.4
20260508155030 68 216 4.0 9.0 0.00 0.72 0.00 64 1017.4
20260508154540 67 138 5.0 9.0 0.00 0.72 0.00 64 1017.5
20260508154030 66 61 1.0 9.0 0.00 0.72 0.00 65 1017.6
20260508153530 66 141 4.0 9.0 0.00 0.72 0.00 65 1017.7
20260508153042 66 141 2.0 8.0 0.00 0.72 0.00 68 1017.6
20260508152530 65 149 2.0 8.0 0.00 0.72 0.00 68 1017.7
20260508152030 66 131 4.0 8.0 0.00 0.72 0.00 69 1017.8
20260508151543 65 321 1.0 6.0 0.00 0.72 0.00 72 1017.8
20260508151030 64 244 1.0 6.0 0.00 0.72 0.00 72 1017.8
20260508150529 64 57 2.0 5.0 0.00 0.72 0.00 72 1017.8
20260508150042 63 76 1.0 6.0 0.00 0.72 0.00 74 1017.8
20260508145530 62 72 2.0 6.0 0.00 0.89 0.00 73 1017.8
20260508145028 62 89 1.0 4.0 0.00 0.89 0.00 74 1017.8
20260508144540 62 0 1.0 5.0 0.00 0.89 0.00 75 1017.9
20260508144030 62 62 0.0 5.0 0.00 0.89 0.00 76 1018.0
20260508143531 61 62 2.0 5.0 0.00 0.89 0.00 75 1017.9
20260508143040 61 108 2.0 4.0 0.00 0.89 0.00 77 1017.9
20260508142532 60 92 0.0 4.0 0.00 0.89 0.00 78 1017.7
20260508142030 60 0 1.0 4.0 0.00 0.89 0.00 79 1017.7
20260508141539 59 82 1.0 3.0 0.00 0.89 0.00 79 1017.7
20260508141031 59 0 0.0 4.0 0.00 0.89 0.00 80 1017.7
20260508140531 58 0 0.0 4.0 0.00 0.89 0.00 80 1017.6
20260508140042 58 28 0.0 5.0 0.00 0.89 0.00 81 1017.6
20260508135532 58 41 1.0 5.0 0.00 1.04 0.00 80 1017.7
20260508135030 58 44 2.0 5.0 0.00 1.04 0.00 81 1017.8
20260508134545 58 51 2.0 4.0 0.00 1.04 0.00 82 1017.6
20260508134029 57 26 0.0 3.0 0.00 1.04 0.00 84 1017.7
20260508133532 57 5 0.0 3.0 0.00 1.04 0.00 84 1017.7
20260508133043 57 5 1.0 3.0 0.00 1.04 0.00 84 1017.9
20260508132529 56 360 0.0 3.0 0.00 1.04 0.00 85 1017.9
20260508132030 56 0 0.0 1.0 0.00 1.04 0.00 86 1017.9
20260508131542 55 0 0.0 3.0 0.00 1.04 0.00 87 1017.8
20260508131030 55 0 0.0 3.0 0.00 1.04 0.00 87 1017.9
20260508130531 54 325 1.0 3.0 0.00 1.04 0.00 88 1017.9
20260508130036 54 325 1.0 2.0 0.00 1.04 0.00 88 1018.0
20260508125528 54 0 0.0 2.0 0.00 1.17 0.00 90 1018.0
20260508125030 53 0 0.0 0.0 0.00 1.17 0.00 91 1017.9
20260508124540 53 0 0.0 0.0 0.00 1.17 0.00 91 1017.8
20260508124029 53 0 0.0 2.0 0.00 1.17 0.00 92 1017.7
20260508123529 52 0 0.0 2.0 0.00 1.17 0.00 92 1017.8
20260508123040 52 328 0.0 2.0 0.00 1.17 0.00 92 1017.8
20260508122529 52 0 0.0 3.0 0.00 1.17 0.00 91 1017.9
20260508122030 51 329 1.0 3.0 0.00 1.17 0.00 92 1017.9
20260508121543 51 329 1.0 2.0 0.00 1.17 0.00 93 1017.8
20260508121028 51 330 0.0 2.0 0.00 1.17 0.00 93 1017.7
20260508120528 51 0 0.0 2.0 0.00 1.17 0.00 93 1017.6
20260508120044 51 0 0.0 0.0 0.00 1.17 0.00 94 1017.5
20260508115528 50 0 0.0 1.0 0.00 1.31 0.00 93 1017.4
20260508115027 50 0 0.0 1.0 0.00 1.31 0.00 93 1017.1
20260508114550 50 0 0.0 0.0 0.00 1.31 0.00 93 1017.1
20260508114030 49 0 0.0 0.0 0.00 1.31 0.00 93 1016.9
20260508113531 49 0 0.0 0.0 0.00 1.31 0.00 93 1016.7
20260508113043 49 0 0.0 0.0 0.00 1.31 0.00 93 1016.6
20260508112529 49 0 0.0 2.0 0.00 1.31 0.00 93 1016.4
20260508112031 49 0 0.0 2.0 0.00 1.31 0.00 92 1016.3
20260508111556 49 0 0.0 2.0 0.00 1.31 0.00 92 1016.2
20260508111030 49 332 0.0 2.0 0.00 1.31 0.00 92 1016.3
20260508110530 49 0 0.0 0.0 0.00 1.31 0.00 92 1016.2
20260508110040 49 0 0.0 0.0 0.00 1.31 0.00 92 1016.2
20260508105528 49 0 0.0 0.0 0.00 1.42 0.00 92 1016.2
20260508105030 50 0 0.0 0.0 0.00 1.42 0.00 92 1016.0
20260508104541 50 0 0.0 0.0 0.00 1.42 0.00 92 1015.9
20260508104028 50 0 0.0 0.0 0.00 1.42 0.00 92 1015.8
20260508103528 50 0 0.0 0.0 0.00 1.42 0.00 92 1015.7
20260508103041 50 0 0.0 0.0 0.00 1.42 0.00 92 1015.6
20260508102530 50 0 0.0 0.0 0.00 1.42 0.00 92 1015.5
20260508102028 50 0 0.0 0.0 0.00 1.42 0.00 93 1015.5
20260508101537 50 0 0.0 0.0 0.00 1.42 0.00 92 1015.3
20260508101029 49 0 0.0 0.0 0.00 1.42 0.00 92 1015.3
20260508100528 50 0 0.0 0.0 0.00 1.42 0.00 91 1015.2
20260508100038 50 0 0.0 0.0 0.00 1.42 0.00 91 1015.2
20260508095530 50 0 0.0 0.0 0.00 1.54 0.00 91 1015.1
20260508095033 50 0 0.0 0.0 0.00 1.54 0.00 91 1015.1
20260508094545 50 0 0.0 0.0 0.00 1.54 0.00 91 1015.2
20260508094030 50 0 0.0 0.0 0.00 1.54 0.00 91 1015.2
20260508093532 50 0 0.0 0.0 0.00 1.54 0.00 91 1015.1
20260508093042 51 0 0.0 0.0 0.00 1.54 0.00 91 1015.0
20260508092532 51 0 0.0 0.0 0.00 1.54 0.00 91 1014.9
20260508092032 51 0 0.0 0.0 0.00 1.54 0.00 91 1015.0
20260508091544 51 0 0.0 0.0 0.00 1.54 0.00 91 1014.9
20260508091032 51 0 0.0 0.0 0.00 1.54 0.00 91 1014.9
20260508090533 51 0 0.0 0.0 0.00 1.54 0.00 91 1014.8
20260508090036 51 0 0.0 0.0 0.00 1.54 0.00 91 1014.7
20260508085530 51 0 0.0 0.0 0.00 1.68 0.00 91 1014.6
20260508085029 51 0 0.0 2.0 0.00 1.68 0.00 91 1014.7
20260508084541 51 0 0.0 3.0 0.00 1.68 0.00 91 1014.8
20260508084032 51 0 0.0 3.0 0.00 1.68 0.00 91 1014.7
20260508083531 51 333 1.0 3.0 0.00 1.68 0.00 91 1014.7
20260508083048 51 333 1.0 3.0 0.00 1.68 0.00 91 1014.7
20260508082534 52 333 1.0 3.0 0.00 1.68 0.00 91 1014.6
20260508082030 52 332 0.0 2.0 0.00 1.68 0.00 91 1014.6
20260508081546 52 0 0.0 0.0 0.00 1.68 0.00 91 1014.6
20260508081031 52 0 0.0 0.0 0.00 1.68 0.00 91 1014.6
20260508080531 52 0 0.0 1.0 0.00 1.68 0.00 91 1014.7
20260508080053 52 0 0.0 2.0 0.00 1.68 0.00 91 1014.6
20260508075531 52 0 0.0 2.0 0.00 1.83 0.00 91 1014.6
20260508075031 52 332 1.0 2.0 0.00 1.83 0.00 90 1014.7
20260508074543 52 332 0.0 2.0 0.00 1.83 0.00 90 1014.7
20260508074032 53 0 0.0 0.0 0.00 1.83 0.00 90 1014.8
20260508073532 53 0 0.0 2.0 0.00 1.83 0.00 90 1014.7
20260508073045 53 0 0.0 2.0 0.00 1.83 0.00 89 1014.7
20260508072531 53 331 1.0 2.0 0.00 1.83 0.00 89 1014.7
20260508072031 53 331 1.0 2.0 0.00 1.83 0.00 89 1014.8
20260508071540 54 331 1.0 2.0 0.00 1.83 0.00 89 1014.8
20260508071033 54 0 0.0 2.0 0.00 1.83 0.00 88 1015.0
20260508070533 54 0 0.0 2.0 0.00 1.83 0.00 89 1015.0
20260508070042 54 0 0.0 2.0 0.00 1.83 0.00 89 1015.1
20260508065530 54 0 0.0 2.0 0.00 1.99 0.00 89 1015.0
20260508065031 54 332 0.0 2.0 0.00 1.99 0.00 89 1015.0
20260508064541 54 0 0.0 2.0 0.00 1.99 0.00 89 1015.0
20260508064032 54 0 0.0 3.0 0.00 1.99 0.00 89 1014.9
20260508063532 54 331 1.0 3.0 0.00 1.99 0.00 89 1015.0
20260508063040 54 329 0.0 3.0 0.00 1.99 0.00 89 1015.1
20260508062531 54 0 0.0 3.0 0.00 1.99 0.00 89 1015.2
20260508062030 55 329 0.0 3.0 0.00 1.99 0.00 89 1015.2
20260508061543 55 0 0.0 0.0 0.00 1.99 0.00 89 1015.2